sim
Sign-in with your pilot id or email,
or register
Callsign
Passwort

Schedule Details

Flight Number: RYR5082 (4)
Departure: Paphos International Airport (LCPH) at 18:30
Arrival: Thessaloniki International Airport (LGTS) at 20:35
Route: Ryanair Passenger Schedule. Enter filed route here before submitting Pirep.

Weather Information
Getting current METAR information for LCPH 211700Z 30010KT CAVOK 27/24 Q1010
Getting current METAR information for LGTS 211720Z 17006KT CAVOK 30/12 Q1016 NOSIG

Schedule Frequency

Route Map